Time,TemperatureF,DewpointF,PressureIn,WindDirection,WindDirectionDegrees,WindSpeedMPH,WindSpeedGustMPH,Humidity,HourlyPrecipIn,Conditions,Clouds,dailyrainin,SoftwareType,DateUTC
2013-04-18 00:02:00,49.0,-99.9,30.26,WNW,294,20.0,23.0,-999,-99.99,,,-99.99,,2013-04-18 07:02:00,
2013-04-18 00:12:00,49.0,-99.9,30.26,WNW,297,20.0,25.0,-999,-99.99,,,-99.99,,2013-04-18 07:12:00,
2013-04-18 00:22:00,49.0,-99.9,30.26,WNW,295,18.0,23.0,-999,-99.99,,,-99.99,,2013-04-18 07:22:00,
2013-04-18 00:32:00,48.0,-99.9,30.26,WNW,299,18.0,20.0,-999,-99.99,,,-99.99,,2013-04-18 07:32:00,
2013-04-18 00:42:00,48.0,-99.9,30.26,WNW,293,18.0,21.0,-999,-99.99,,,-99.99,,2013-04-18 07:42:00,
2013-04-18 00:53:00,48.0,-99.9,30.26,WNW,293,18.0,24.0,-999,-99.99,,,-99.99,,2013-04-18 07:53:00,
2013-04-18 01:02:00,48.0,-99.9,30.26,WNW,292,18.0,22.0,-999,-99.99,,,-99.99,,2013-04-18 08:02:00,
2013-04-18 01:12:00,48.0,-99.9,30.26,WNW,290,17.0,24.0,-999,-99.99,,,-99.99,,2013-04-18 08:12:00,
2013-04-18 01:22:00,48.0,-99.9,30.25,WNW,289,18.0,23.0,-999,-99.99,,,-99.99,,2013-04-18 08:22:00,
2013-04-18 01:32:00,48.0,-99.9,30.25,WNW,291,18.0,23.0,-999,-99.99,,,-99.99,,2013-04-18 08:32:00,
2013-04-18 01:42:00,48.0,-99.9,30.25,WNW,290,18.0,23.0,-999,-99.99,,,-99.99,,2013-04-18 08:42:00,
2013-04-18 01:52:00,48.0,-99.9,30.25,WNW,289,17.0,23.0,-999,-99.99,,,-99.99,,2013-04-18 08:52:00,
2013-04-18 02:02:00,48.0,-99.9,30.25,WNW,283,17.0,20.0,-999,-99.99,,,-99.99,,2013-04-18 09:02:00,
2013-04-18 02:12:00,48.0,-99.9,30.24,WNW,284,16.0,20.0,-999,-99.99,,,-99.99,,2013-04-18 09:12:00,
2013-04-18 02:22:00,48.0,-99.9,30.24,West,279,16.0,19.0,-999,-99.99,,,-99.99,,2013-04-18 09:22:00,
2013-04-18 02:33:00,48.0,-99.9,30.25,WNW,287,17.0,22.0,-999,-99.99,,,-99.99,,2013-04-18 09:33:00,
2013-04-18 02:43:00,47.0,-99.9,30.24,West,280,15.0,21.0,-999,-99.99,,,-99.99,,2013-04-18 09:43:00,
2013-04-18 02:53:00,48.0,-99.9,30.25,WNW,292,16.0,20.0,-999,-99.99,,,-99.99,,2013-04-18 09:53:00,
2013-04-18 03:03:00,48.0,-99.9,30.24,WNW,285,14.0,20.0,-999,-99.99,,,-99.99,,2013-04-18 10:03:00,
2013-04-18 03:12:00,48.0,-99.9,30.23,WNW,294,20.0,24.0,-999,-99.99,,,-99.99,,2013-04-18 10:12:00,
2013-04-18 03:23:00,48.0,-99.9,30.24,WNW,292,20.0,25.0,-999,-99.99,,,-99.99,,2013-04-18 10:23:00,
2013-04-18 03:33:00,49.0,-99.9,30.23,WNW,296,17.0,23.0,-999,-99.99,,,-99.99,,2013-04-18 10:33:00,
2013-04-18 03:42:00,48.0,-99.9,30.24,WNW,295,17.0,21.0,-999,-99.99,,,-99.99,,2013-04-18 10:42:00,
2013-04-18 03:53:00,48.0,-99.9,30.24,WNW,286,14.0,23.0,-999,-99.99,,,-99.99,,2013-04-18 10:53:00,
2013-04-18 04:03:00,48.0,-99.9,30.24,WNW,286,16.0,23.0,-999,-99.99,,,-99.99,,2013-04-18 11:03:00,
2013-04-18 04:12:00,48.0,-99.9,30.24,WNW,295,17.0,22.0,-999,-99.99,,,-99.99,,2013-04-18 11:12:00,
2013-04-18 04:22:00,48.0,-99.9,30.25,NW,308,13.0,19.0,-999,-99.99,,,-99.99,,2013-04-18 11:22:00,
2013-04-18 04:33:00,47.0,-99.9,30.26,NW,315,11.0,14.0,-999,-99.99,,,-99.99,,2013-04-18 11:33:00,
2013-04-18 04:42:00,47.0,-99.9,30.25,NW,325,8.0,12.0,-999,-99.99,,,-99.99,,2013-04-18 11:42:00,
2013-04-18 04:52:00,47.0,-99.9,30.25,NW,309,12.0,15.0,-999,-99.99,,,-99.99,,2013-04-18 11:52:00,
2013-04-18 05:02:00,47.0,-99.9,30.25,NW,318,10.0,13.0,-999,-99.99,,,-99.99,,2013-04-18 12:02:00,
2013-04-18 05:12:00,47.0,-99.9,30.25,NW,312,10.0,13.0,-999,-99.99,,,-99.99,,2013-04-18 12:12:00,
2013-04-18 05:23:00,47.0,-99.9,30.25,NW,310,9.0,13.0,-999,-99.99,,,-99.99,,2013-04-18 12:23:00,
2013-04-18 05:32:00,47.0,-99.9,30.25,WNW,295,11.0,13.0,-999,-99.99,,,-99.99,,2013-04-18 12:32:00,
2013-04-18 05:42:00,48.0,-99.9,30.24,West,279,16.0,20.0,-999,-99.99,,,-99.99,,2013-04-18 12:42:00,
2013-04-18 05:53:00,48.0,-99.9,30.24,West,274,16.0,20.0,-999,-99.99,,,-99.99,,2013-04-18 12:53:00,
2013-04-18 06:03:00,47.0,-99.9,30.25,West,279,15.0,20.0,-999,-99.99,,,-99.99,,2013-04-18 13:03:00,
2013-04-18 06:13:00,48.0,-99.9,30.25,WNW,286,16.0,20.0,-999,-99.99,,,-99.99,,2013-04-18 13:13:00,
2013-04-18 06:22:00,47.0,-99.9,30.25,WNW,283,16.0,19.0,-999,-99.99,,,-99.99,,2013-04-18 13:22:00,
2013-04-18 06:33:00,48.0,-99.9,30.25,WNW,287,15.0,18.0,-999,-99.99,,,-99.99,,2013-04-18 13:33:00,
2013-04-18 06:43:00,47.0,-99.9,30.26,West,280,14.0,19.0,-999,-99.99,,,-99.99,,2013-04-18 13:43:00,
2013-04-18 06:53:00,47.0,-99.9,30.26,West,277,14.0,17.0,-999,-99.99,,,-99.99,,2013-04-18 13:53:00,
2013-04-18 07:03:00,47.0,-99.9,30.26,West,274,14.0,18.0,-999,-99.99,,,-99.99,,2013-04-18 14:03:00,
2013-04-18 07:13:00,47.0,-99.9,30.26,West,280,15.0,20.0,-999,-99.99,,,-99.99,,2013-04-18 14:13:00,
2013-04-18 07:22:00,47.0,-99.9,30.26,West,272,17.0,21.0,-999,-99.99,,,-99.99,,2013-04-18 14:22:00,
2013-04-18 07:33:00,48.0,-99.9,30.26,West,273,17.0,21.0,-999,-99.99,,,-99.99,,2013-04-18 14:33:00,
2013-04-18 07:43:00,48.0,-99.9,30.26,West,276,17.0,20.0,-999,-99.99,,,-99.99,,2013-04-18 14:43:00,
2013-04-18 07:52:00,48.0,-99.9,30.26,West,275,16.0,21.0,-999,-99.99,,,-99.99,,2013-04-18 14:52:00,
2013-04-18 08:03:00,49.0,-99.9,30.27,West,279,14.0,16.0,-999,-99.99,,,-99.99,,2013-04-18 15:03:00,
2013-04-18 08:12:00,49.0,-99.9,30.27,WNW,287,16.0,19.0,-999,-99.99,,,-99.99,,2013-04-18 15:12:00,
2013-04-18 08:23:00,49.0,-99.9,30.27,WNW,287,16.0,19.0,-999,-99.99,,,-99.99,,2013-04-18 15:23:00,
2013-04-18 08:33:00,49.0,-99.9,30.28,West,279,13.0,19.0,-999,-99.99,,,-99.99,,2013-04-18 15:33:00,
2013-04-18 08:43:00,50.0,-99.9,30.28,West,281,13.0,18.0,-999,-99.99,,,-99.99,,2013-04-18 15:43:00,
2013-04-18 08:53:00,50.0,-99.9,30.28,West,281,13.0,17.0,-999,-99.99,,,-99.99,,2013-04-18 15:53:00,
2013-04-18 09:03:00,50.0,-99.9,30.28,West,280,15.0,18.0,-999,-99.99,,,-99.99,,2013-04-18 16:03:00,
2013-04-18 09:13:00,50.0,-99.9,30.28,WNW,287,18.0,22.0,-999,-99.99,,,-99.99,,2013-04-18 16:13:00,
2013-04-18 09:23:00,50.0,-99.9,30.28,WNW,294,17.0,20.0,-999,-99.99,,,-99.99,,2013-04-18 16:23:00,
2013-04-18 09:33:00,49.0,-99.9,30.28,WNW,293,19.0,24.0,-999,-99.99,,,-99.99,,2013-04-18 16:33:00,
2013-04-18 09:43:00,49.0,-99.9,30.28,WNW,289,19.0,23.0,-999,-99.99,,,-99.99,,2013-04-18 16:43:00,
2013-04-18 09:53:00,50.0,-99.9,30.28,WNW,291,19.0,23.0,-999,-99.99,,,-99.99,,2013-04-18 16:53:00,
2013-04-18 10:03:00,50.0,-99.9,30.28,WNW,298,18.0,21.0,-999,-99.99,,,-99.99,,2013-04-18 17:03:00,
2013-04-18 10:13:00,50.0,-99.9,30.29,WNW,300,17.0,20.0,-999,-99.99,,,-99.99,,2013-04-18 17:13:00,
2013-04-18 10:22:00,50.0,-99.9,30.29,NW,304,18.0,21.0,-999,-99.99,,,-99.99,,2013-04-18 17:22:00,
2013-04-18 10:33:00,50.0,-99.9,30.28,WNW,295,18.0,21.0,-999,-99.99,,,-99.99,,2013-04-18 17:33:00,
2013-04-18 10:43:00,50.0,-99.9,30.29,WNW,299,20.0,23.0,-999,-99.99,,,-99.99,,2013-04-18 17:43:00,
2013-04-18 10:52:00,50.0,-99.9,30.29,WNW,301,21.0,23.0,-999,-99.99,,,-99.99,,2013-04-18 17:52:00,
2013-04-18 11:03:00,50.0,-99.9,30.29,WNW,300,20.0,24.0,-999,-99.99,,,-99.99,,2013-04-18 18:03:00,
2013-04-18 11:13:00,50.0,-99.9,30.29,WNW,302,19.0,22.0,-999,-99.99,,,-99.99,,2013-04-18 18:13:00,
2013-04-18 11:23:00,50.0,-99.9,30.29,WNW,302,20.0,23.0,-999,-99.99,,,-99.99,,2013-04-18 18:23:00,
2013-04-18 11:33:00,50.0,-99.9,30.30,WNW,297,20.0,23.0,-999,-99.99,,,-99.99,,2013-04-18 18:33:00,
2013-04-18 11:43:00,50.0,-99.9,30.30,WNW,295,20.0,24.0,-999,-99.99,,,-99.99,,2013-04-18 18:43:00,
2013-04-18 11:53:00,50.0,-99.9,30.30,WNW,294,21.0,24.0,-999,-99.99,,,-99.99,,2013-04-18 18:53:00,
2013-04-18 12:03:00,50.0,-99.9,30.30,WNW,296,24.0,27.0,-999,-99.99,,,-99.99,,2013-04-18 19:03:00,
2013-04-18 12:13:00,50.0,-99.9,30.29,WNW,295,22.0,27.0,-999,-99.99,,,-99.99,,2013-04-18 19:13:00,
2013-04-18 12:22:00,50.0,-99.9,30.29,WNW,296,20.0,25.0,-999,-99.99,,,-99.99,,2013-04-18 19:22:00,
2013-04-18 12:33:00,50.0,-99.9,30.29,WNW,291,23.0,27.0,-999,-99.99,,,-99.99,,2013-04-18 19:33:00,
2013-04-18 12:43:00,51.0,-99.9,30.29,WNW,289,19.0,23.0,-999,-99.99,,,-99.99,,2013-04-18 19:43:00,
2013-04-18 12:53:00,51.0,-99.9,30.29,WNW,291,20.0,26.0,-999,-99.99,,,-99.99,,2013-04-18 19:53:00,
2013-04-18 13:03:00,51.0,-99.9,30.29,WNW,290,19.0,25.0,-999,-99.99,,,-99.99,,2013-04-18 20:03:00,
2013-04-18 13:12:00,51.0,-99.9,30.29,WNW,289,19.0,23.0,-999,-99.99,,,-99.99,,2013-04-18 20:12:00,
2013-04-18 13:22:00,51.0,-99.9,30.29,WNW,287,21.0,25.0,-999,-99.99,,,-99.99,,2013-04-18 20:22:00,
2013-04-18 13:32:00,51.0,-99.9,30.28,WNW,285,22.0,26.0,-999,-99.99,,,-99.99,,2013-04-18 20:32:00,
2013-04-18 13:43:00,51.0,-99.9,30.28,WNW,288,19.0,25.0,-999,-99.99,,,-99.99,,2013-04-18 20:43:00,
2013-04-18 13:52:00,51.0,-99.9,30.28,WNW,289,21.0,25.0,-999,-99.99,,,-99.99,,2013-04-18 20:52:00,
2013-04-18 14:03:00,51.0,-99.9,30.28,WNW,292,18.0,25.0,-999,-99.99,,,-99.99,,2013-04-18 21:03:00,
2013-04-18 14:12:00,51.0,-99.9,30.28,WNW,297,18.0,25.0,-999,-99.99,,,-99.99,,2013-04-18 21:12:00,
2013-04-18 14:22:00,51.0,-99.9,30.28,WNW,293,21.0,25.0,-999,-99.99,,,-99.99,,2013-04-18 21:22:00,
2013-04-18 14:33:00,51.0,-99.9,30.28,WNW,294,19.0,25.0,-999,-99.99,,,-99.99,,2013-04-18 21:33:00,
2013-04-18 14:43:00,51.0,-99.9,30.28,WNW,297,20.0,26.0,-999,-99.99,,,-99.99,,2013-04-18 21:43:00,
2013-04-18 14:53:00,51.0,-99.9,30.28,WNW,298,20.0,26.0,-999,-99.99,,,-99.99,,2013-04-18 21:53:00,
2013-04-18 15:03:00,51.0,-99.9,30.28,NW,305,20.0,24.0,-999,-99.99,,,-99.99,,2013-04-18 22:03:00,
2013-04-18 15:13:00,51.0,-99.9,30.27,WNW,294,20.0,26.0,-999,-99.99,,,-99.99,,2013-04-18 22:13:00,
2013-04-18 15:23:00,51.0,-99.9,30.27,WNW,298,19.0,24.0,-999,-99.99,,,-99.99,,2013-04-18 22:23:00,
2013-04-18 15:33:00,50.0,-99.9,30.27,WNW,297,21.0,25.0,-999,-99.99,,,-99.99,,2013-04-18 22:33:00,
2013-04-18 15:42:00,50.0,-99.9,30.27,WNW,297,22.0,28.0,-999,-99.99,,,-99.99,,2013-04-18 22:42:00,
2013-04-18 15:53:00,50.0,-99.9,30.26,WNW,294,24.0,30.0,-999,-99.99,,,-99.99,,2013-04-18 22:53:00,
2013-04-18 16:04:00,50.0,-99.9,30.26,WNW,298,23.0,29.0,-999,-99.99,,,-99.99,,2013-04-18 23:04:00,
2013-04-18 16:12:00,50.0,-99.9,30.26,WNW,295,24.0,30.0,-999,-99.99,,,-99.99,,2013-04-18 23:12:00,
2013-04-18 16:22:00,51.0,-99.9,30.25,WNW,291,23.0,29.0,-999,-99.99,,,-99.99,,2013-04-18 23:22:00,
2013-04-18 16:32:00,50.0,-99.9,30.25,WNW,297,24.0,28.0,-999,-99.99,,,-99.99,,2013-04-18 23:32:00,
2013-04-18 16:42:00,50.0,-99.9,30.25,WNW,293,22.0,29.0,-999,-99.99,,,-99.99,,2013-04-18 23:42:00,
2013-04-18 16:52:00,50.0,-99.9,30.24,WNW,297,22.0,30.0,-999,-99.99,,,-99.99,,2013-04-18 23:52:00,
2013-04-18 17:01:00,50.0,-99.9,30.24,WNW,294,23.0,30.0,-999,-99.99,,,-99.99,,2013-04-19 00:01:00,
2013-04-18 17:12:00,50.0,-99.9,30.24,WNW,291,25.0,32.0,-999,-99.99,,,-99.99,,2013-04-19 00:12:00,
2013-04-18 17:22:00,50.0,-99.9,30.24,WNW,292,23.0,32.0,-999,-99.99,,,-99.99,,2013-04-19 00:22:00,
2013-04-18 17:32:00,50.0,-99.9,30.24,WNW,293,23.0,29.0,-999,-99.99,,,-99.99,,2013-04-19 00:32:00,
2013-04-18 17:42:00,50.0,-99.9,30.24,WNW,289,22.0,26.0,-999,-99.99,,,-99.99,,2013-04-19 00:42:00,
2013-04-18 17:52:00,50.0,-99.9,30.24,WNW,295,24.0,28.0,-999,-99.99,,,-99.99,,2013-04-19 00:52:00,
2013-04-18 18:01:00,50.0,-99.9,30.24,WNW,294,23.0,29.0,-999,-99.99,,,-99.99,,2013-04-19 01:01:00,
2013-04-18 18:11:00,50.0,-99.9,30.24,WNW,295,25.0,30.0,-999,-99.99,,,-99.99,,2013-04-19 01:11:00,
2013-04-18 18:21:00,50.0,-99.9,30.24,WNW,294,25.0,30.0,-999,-99.99,,,-99.99,,2013-04-19 01:21:00,
2013-04-18 18:32:00,50.0,-99.9,30.24,WNW,299,21.0,28.0,-999,-99.99,,,-99.99,,2013-04-19 01:32:00,
2013-04-18 18:42:00,50.0,-99.9,30.24,WNW,303,23.0,29.0,-999,-99.99,,,-99.99,,2013-04-19 01:42:00,
2013-04-18 18:52:00,50.0,-99.9,30.24,WNW,301,19.0,26.0,-999,-99.99,,,-99.99,,2013-04-19 01:52:00,
2013-04-18 19:02:00,50.0,-99.9,30.24,WNW,303,20.0,26.0,-999,-99.99,,,-99.99,,2013-04-19 02:02:00,
2013-04-18 19:11:00,49.0,-99.9,30.24,NW,305,18.0,24.0,-999,-99.99,,,-99.99,,2013-04-19 02:11:00,
2013-04-18 19:21:00,49.0,-99.9,30.23,WNW,301,20.0,25.0,-999,-99.99,,,-99.99,,2013-04-19 02:21:00,
2013-04-18 19:32:00,49.0,-99.9,30.23,WNW,300,18.0,24.0,-999,-99.99,,,-99.99,,2013-04-19 02:32:00,
2013-04-18 19:42:00,49.0,-99.9,30.23,NW,313,15.0,19.0,-999,-99.99,,,-99.99,,2013-04-19 02:42:00,
2013-04-18 19:52:00,49.0,-99.9,30.23,NW,310,16.0,21.0,-999,-99.99,,,-99.99,,2013-04-19 02:52:00,
2013-04-18 20:01:00,49.0,-99.9,30.22,WNW,295,23.0,27.0,-999,-99.99,,,-99.99,,2013-04-19 03:01:00,
2013-04-18 20:12:00,49.0,-99.9,30.22,WNW,291,21.0,28.0,-999,-99.99,,,-99.99,,2013-04-19 03:12:00,
2013-04-18 20:22:00,49.0,-99.9,30.22,WNW,296,22.0,25.0,-999,-99.99,,,-99.99,,2013-04-19 03:22:00,
2013-04-18 20:33:00,49.0,-99.9,30.22,WNW,295,19.0,25.0,-999,-99.99,,,-99.99,,2013-04-19 03:33:00,
2013-04-18 20:43:00,49.0,-99.9,30.22,WNW,295,25.0,29.0,-999,-99.99,,,-99.99,,2013-04-19 03:43:00,
2013-04-18 20:54:00,49.0,-99.9,30.22,WNW,295,23.0,28.0,-999,-99.99,,,-99.99,,2013-04-19 03:54:00,
2013-04-18 21:03:00,49.0,-99.9,30.23,WNW,303,18.0,26.0,-999,-99.99,,,-99.99,,2013-04-19 04:03:00,
2013-04-18 21:13:00,49.0,-99.9,30.23,NW,311,16.0,23.0,-999,-99.99,,,-99.99,,2013-04-19 04:13:00,
2013-04-18 21:23:00,49.0,-99.9,30.24,NW,309,19.0,26.0,-999,-99.99,,,-99.99,,2013-04-19 04:23:00,
2013-04-18 21:33:00,49.0,-99.9,30.24,NW,306,19.0,23.0,-999,-99.99,,,-99.99,,2013-04-19 04:33:00,
2013-04-18 21:43:00,49.0,-99.9,30.24,WNW,303,20.0,26.0,-999,-99.99,,,-99.99,,2013-04-19 04:43:00,
2013-04-18 21:52:00,49.0,-99.9,30.24,NW,305,18.0,26.0,-999,-99.99,,,-99.99,,2013-04-19 04:52:00,
2013-04-18 22:03:00,49.0,-99.9,30.25,NW,322,13.0,19.0,-999,-99.99,,,-99.99,,2013-04-19 05:03:00,
2013-04-18 22:12:00,49.0,-99.9,30.24,NW,307,15.0,20.0,-999,-99.99,,,-99.99,,2013-04-19 05:12:00,
2013-04-18 22:22:00,49.0,-99.9,30.25,NW,306,15.0,19.0,-999,-99.99,,,-99.99,,2013-04-19 05:22:00,
2013-04-18 22:32:00,49.0,-99.9,30.25,NW,310,15.0,19.0,-999,-99.99,,,-99.99,,2013-04-19 05:32:00,
2013-04-18 22:42:00,49.0,-99.9,30.25,NW,312,13.0,18.0,-999,-99.99,,,-99.99,,2013-04-19 05:42:00,
2013-04-18 22:52:00,48.0,-99.9,30.24,NW,311,14.0,17.0,-999,-99.99,,,-99.99,,2013-04-19 05:52:00,
2013-04-18 23:02:00,48.0,-99.9,30.24,NW,307,15.0,19.0,-999,-99.99,,,-99.99,,2013-04-19 06:02:00,
2013-04-18 23:12:00,48.0,-99.9,30.24,NW,306,12.0,18.0,-999,-99.99,,,-99.99,,2013-04-19 06:12:00,
2013-04-18 23:22:00,48.0,-99.9,30.24,WNW,297,14.0,17.0,-999,-99.99,,,-99.99,,2013-04-19 06:22:00,
2013-04-18 23:32:00,48.0,-99.9,30.24,WNW,300,14.0,18.0,-999,-99.99,,,-99.99,,2013-04-19 06:32:00,
2013-04-18 23:42:00,48.0,-99.9,30.24,WNW,288,12.0,16.0,-999,-99.99,,,-99.99,,2013-04-19 06:42:00,
2013-04-18 23:53:00,48.0,-99.9,30.24,WNW,299,11.0,15.0,-999,-99.99,,,-99.99,,2013-04-19 06:53:00,